Wetterstation Vettwei-Soller: Standort 50 43' 54" Nord - 6 33' 24" Ost
Wetterdaten: aktuell Montag, 23.09.2019 21:45
Datum Zeit Temp. A. Temp. A. min Temp. A. max Feuchte A. Luftdruck Regen Wind Richtung Richtung Sonnenschein Zeit Regen ET UV Solar Taupunkt Windchill Windben
23.09.2019 21:45 15,6 C 15,6 C 15,8 C 77 % 1017,1 hPa 0,0 l/m 4,2 km/h (1 Bft) S-SW 209 0 min 0 min 0,000 mm 0,0 UV-I 0 W/m 11,6 C 15,6 C 8,0 km/h (2 Bft)
23.09.2019 21:30 15,8 C 15,7 C 16,0 C 76 % 1017,2 hPa 0,0 l/m 5,0 km/h (1 Bft) SW 220 0 min 0 min 0,000 mm 0,0 UV-I 0 W/m 11,6 C 15,8 C 9,7 km/h (2 Bft)
23.09.2019 21:15 15,9 C 15,9 C 16,3 C 75 % 1017,1 hPa 0,0 l/m 4,3 km/h (1 Bft) SW 226 0 min 0 min 0,025 mm 0,0 UV-I 0 W/m 11,5 C 15,9 C 9,7 km/h (2 Bft)
23.09.2019 21:00 16,3 C 16,2 C 16,4 C 74 % 1017,0 hPa 0,0 l/m 6,4 km/h (2 Bft) S-SW 200 0 min 0 min 0,000 mm 0,0 UV-I 0 W/m 11,7 C 16,3 C 12,9 km/h (3 Bft)
23.09.2019 20:45 16,3 C 16,3 C 16,6 C 75 % 1017,1 hPa 0,0 l/m 4,3 km/h (1 Bft) S-SW 202 0 min 0 min 0,000 mm 0,0 UV-I 0 W/m 11,9 C 16,3 C 9,7 km/h (2 Bft)
23.09.2019 20:30 16,5 C 16,5 C 16,6 C 74 % 1017,0 hPa 0,0 l/m 5,0 km/h (1 Bft) S-SW 205 0 min 0 min 0,000 mm 0,0 UV-I 0 W/m 11,8 C 16,5 C 9,7 km/h (2 Bft)
23.09.2019 20:15 16,6 C 16,6 C 16,7 C 74 % 1016,9 hPa 0,0 l/m 5,0 km/h (1 Bft) S-SW 202 0 min 0 min 0,025 mm 0,0 UV-I 0 W/m 11,9 C 16,6 C 8,0 km/h (2 Bft)
23.09.2019 20:00 16,7 C 16,7 C 16,8 C 74 % 1016,9 hPa 0,0 l/m 3,4 km/h (1 Bft) S-SW 209 0 min 0 min 0,000 mm 0,0 UV-I 0 W/m 12,0 C 16,7 C 6,4 km/h (2 Bft)
23.09.2019 19:45 16,8 C 16,8 C 16,9 C 74 % 1016,9 hPa 0,0 l/m 2,0 km/h (1 Bft) S 191 0 min 0 min 0,000 mm 0,0 UV-I 0 W/m 12,1 C 16,8 C 4,8 km/h (1 Bft)
23.09.2019 19:30 16,9 C 16,9 C 17,2 C 73 % 1016,8 hPa 0,0 l/m 1,3 km/h (1 Bft) S-SW 195 0 min 0 min 0,000 mm 0,0 UV-I 0 W/m 12,0 C 16,9 C 4,8 km/h (1 Bft)
23.09.2019 19:15 17,2 C 17,2 C 17,4 C 72 % 1016,8 hPa 0,0 l/m 1,0 km/h (0 Bft) S-SW 192 0 min 0 min 0,051 mm 0,0 UV-I 5 W/m 12,1 C 17,2 C 4,8 km/h (1 Bft)
23.09.2019 19:00 17,4 C 17,4 C 17,7 C 70 % 1016,8 hPa 0,0 l/m 2,9 km/h (1 Bft) S-SW 192 0 min 0 min 0,000 mm 0,0 UV-I 12 W/m 11,9 C 17,4 C 11,3 km/h (2 Bft)
23.09.2019 18:45 17,7 C 17,7 C 17,8 C 70 % 1016,7 hPa 0,0 l/m 2,1 km/h (1 Bft) W-SW 257 0 min 0 min 0,000 mm 0,0 UV-I 26 W/m 12,2 C 17,7 C 6,4 km/h (2 Bft)
23.09.2019 18:30 17,8 C 17,8 C 17,9 C 68 % 1016,7 hPa 0,0 l/m 4,6 km/h (1 Bft) W-SW 244 0 min 0 min 0,000 mm 0,0 UV-I 46 W/m 11,8 C 17,8 C 11,3 km/h (2 Bft)
23.09.2019 18:15 17,9 C 17,9 C 17,9 C 68 % 1016,7 hPa 0,0 l/m 4,7 km/h (1 Bft) W 265 0 min 0 min 0,076 mm 0,0 UV-I 46 W/m 11,9 C 17,9 C 12,9 km/h (3 Bft)
23.09.2019 18:00 17,9 C 17,9 C 18,2 C 67 % 1016,6 hPa 0,0 l/m 4,8 km/h (1 Bft) W-SW 242 0 min 0 min 0,000 mm 0,0 UV-I 65 W/m 11,7 C 17,9 C 12,9 km/h (3 Bft)
23.09.2019 17:45 18,2 C 18,1 C 18,3 C 67 % 1016,5 hPa 0,0 l/m 4,6 km/h (1 Bft) W 277 0 min 0 min 0,000 mm 0,0 UV-I 58 W/m 12,0 C 18,2 C 16,1 km/h (3 Bft)
23.09.2019 17:30 18,2 C 18,2 C 18,4 C 67 % 1016,5 hPa 0,0 l/m 4,4 km/h (1 Bft) SW 215 0 min 0 min 0,000 mm 0,0 UV-I 97 W/m 12,0 C 18,2 C 11,3 km/h (2 Bft)
23.09.2019 17:15 18,4 C 18,4 C 18,6 C 66 % 1016,3 hPa 0,0 l/m 3,9 km/h (1 Bft) W-SW 250 0 min 0 min 0,127 mm 0,0 UV-I 100 W/m 11,9 C 18,4 C 11,3 km/h (2 Bft)
23.09.2019 17:00 18,6 C 18,6 C 18,7 C 65 % 1016,2 hPa 0,0 l/m 3,8 km/h (1 Bft) W-SW 244 0 min 0 min 0,000 mm 0,5 UV-I 102 W/m 11,9 C 18,6 C 12,9 km/h (3 Bft)
23.09.2019 16:45 18,7 C 18,6 C 18,7 C 65 % 1016,3 hPa 0,0 l/m 5,5 km/h (1 Bft) NW 313 0 min 0 min 0,000 mm 0,7 UV-I 141 W/m 12,0 C 18,7 C 14,5 km/h (3 Bft)
23.09.2019 16:30 18,7 C 18,4 C 18,7 C 65 % 1016,2 hPa 0,0 l/m 5,4 km/h (1 Bft) W 263 0 min 0 min 0,000 mm 0,9 UV-I 179 W/m 12,0 C 18,7 C 14,5 km/h (3 Bft)
23.09.2019 16:15 18,6 C 18,5 C 18,7 C 64 % 1016,2 hPa 0,0 l/m 7,3 km/h (2 Bft) NW 315 0 min 0 min 0,000 mm 1,0 UV-I 185 W/m 11,7 C 18,6 C 20,9 km/h (4 Bft)
23.09.2019 16:00 18,6 C 18,6 C 19,5 C 66 % 1016,3 hPa 0,0 l/m 5,9 km/h (2 Bft) SW 225 0 min 0 min 0,178 mm 1,2 UV-I 183 W/m 12,1 C 18,6 C 16,1 km/h (3 Bft)
23.09.2019 15:45 19,5 C 18,8 C 19,6 C 63 % 1016,2 hPa 0,0 l/m 7,8 km/h (2 Bft) W 268 15 min 0 min 0,000 mm 1,6 UV-I 656 W/m 12,3 C 19,5 C 20,9 km/h (4 Bft)
23.09.2019 15:30 19,0 C 19,0 C 19,8 C 63 % 1016,1 hPa 0,0 l/m 8,0 km/h (2 Bft) W-SW 242 0 min 0 min 0,000 mm 1,1 UV-I 160 W/m 11,8 C 19,0 C 20,9 km/h (4 Bft)
23.09.2019 15:15 19,8 C 19,7 C 20,3 C 58 % 1015,8 hPa 0,0 l/m 6,9 km/h (2 Bft) SW 224 0 min 0 min 0,000 mm 1,8 UV-I 204 W/m 11,3 C 19,8 C 17,7 km/h (3 Bft)
23.09.2019 15:00 20,2 C 19,9 C 20,2 C 58 % 1015,9 hPa 0,0 l/m 5,9 km/h (2 Bft) W-SW 258 15 min 0 min 0,305 mm 3,1 UV-I 647 W/m 11,7 C 20,2 C 16,1 km/h (3 Bft)
23.09.2019 14:45 20,0 C 19,2 C 20,1 C 59 % 1015,9 hPa 0,0 l/m 6,7 km/h (2 Bft) W-SW 244 15 min 0 min 0,000 mm 3,3 UV-I 624 W/m 11,7 C 20,0 C 20,9 km/h (4 Bft)
23.09.2019 14:30 19,2 C 19,2 C 19,8 C 59 % 1015,7 hPa 0,0 l/m 5,9 km/h (2 Bft) W-SW 242 15 min 0 min 0,000 mm 3,0 UV-I 489 W/m 11,0 C 19,2 C 16,1 km/h (3 Bft)
23.09.2019 14:15 19,8 C 19,8 C 20,1 C 59 % 1015,7 hPa 0,0 l/m 6,9 km/h (2 Bft) W-NW 297 0 min 0 min 0,305 mm 2,4 UV-I 290 W/m 11,6 C 19,8 C 22,5 km/h (4 Bft)
23.09.2019 14:00 19,9 C 19,3 C 20,3 C 60 % 1015,7 hPa 0,0 l/m 6,4 km/h (2 Bft) SW 219 15 min 0 min 0,000 mm 2,8 UV-I 381 W/m 11,9 C 19,9 C 24,1 km/h (4 Bft)
23.09.2019 13:45 19,3 C 19,2 C 20,2 C 60 % 1015,7 hPa 0,0 l/m 5,4 km/h (1 Bft) S-SW 196 15 min 0 min 0,000 mm 3,5 UV-I 406 W/m 11,3 C 19,3 C 20,9 km/h (4 Bft)
23.09.2019 13:30 20,2 C 19,2 C 20,2 C 59 % 1015,7 hPa 0,0 l/m 7,5 km/h (2 Bft) W-SW 250 0 min 0 min 0,000 mm 2,2 UV-I 297 W/m 11,9 C 20,2 C 22,5 km/h (4 Bft)
23.09.2019 13:15 19,9 C 18,9 C 19,9 C 59 % 1015,6 hPa 0,0 l/m 6,3 km/h (2 Bft) SW 215 0 min 0 min 0,305 mm 3,8 UV-I 251 W/m 11,6 C 19,9 C 19,3 km/h (3 Bft)
23.09.2019 13:00 19,3 C 19,2 C 19,7 C 61 % 1015,8 hPa 0,0 l/m 8,3 km/h (2 Bft) W-SW 249 0 min 0 min 0,000 mm 2,3 UV-I 153 W/m 11,6 C 19,3 C 17,7 km/h (3 Bft)
23.09.2019 12:45 19,2 C 18,4 C 19,2 C 64 % 1015,6 hPa 0,0 l/m 6,0 km/h (2 Bft) S-SW 200 15 min 0 min 0,000 mm 3,7 UV-I 622 W/m 12,2 C 19,2 C 12,9 km/h (3 Bft)
23.09.2019 12:30 18,4 C 17,9 C 18,5 C 67 % 1015,6 hPa 0,0 l/m 7,3 km/h (2 Bft) W-SW 255 15 min 0 min 0,000 mm 3,4 UV-I 608 W/m 12,2 C 18,4 C 22,5 km/h (4 Bft)
23.09.2019 12:15 18,5 C 18,0 C 18,6 C 68 % 1015,7 hPa 0,0 l/m 7,4 km/h (2 Bft) W-SW 247 0 min 0 min 0,203 mm 2,2 UV-I 163 W/m 12,5 C 18,5 C 19,3 km/h (3 Bft)
23.09.2019 12:00 18,0 C 17,8 C 18,5 C 74 % 1015,7 hPa 0,0 l/m 6,7 km/h (2 Bft) W-SW 242 0 min 0 min 0,000 mm 2,4 UV-I 200 W/m 13,3 C 18,0 C 17,7 km/h (3 Bft)
23.09.2019 11:45 18,5 C 17,7 C 18,7 C 71 % 1015,7 hPa 0,0 l/m 5,0 km/h (1 Bft) W 272 15 min 0 min 0,000 mm 2,1 UV-I 448 W/m 13,1 C 18,5 C 14,5 km/h (3 Bft)
23.09.2019 11:30 17,7 C 17,1 C 17,7 C 80 % 1015,6 hPa 0,0 l/m 4,5 km/h (1 Bft) W 266 15 min 0 min 0,000 mm 2,3 UV-I 482 W/m 14,2 C 17,7 C 14,5 km/h (3 Bft)
23.09.2019 11:15 17,3 C 17,1 C 17,6 C 82 % 1015,6 hPa 0,0 l/m 3,6 km/h (1 Bft) N-NW 338 0 min 0 min 0,000 mm 0,9 UV-I 155 W/m 14,2 C 17,3 C 9,7 km/h (2 Bft)
23.09.2019 11:00 17,1 C 17,0 C 17,2 C 83 % 1015,5 hPa 0,0 l/m 4,9 km/h (1 Bft) W-SW 247 0 min 0 min 0,101 mm 1,2 UV-I 193 W/m 14,2 C 17,1 C 16,1 km/h (3 Bft)
23.09.2019 10:45 17,0 C 16,9 C 17,1 C 84 % 1015,6 hPa 0,0 l/m 3,7 km/h (1 Bft) NW 304 0 min 0 min 0,000 mm 1,3 UV-I 211 W/m 14,3 C 17,0 C 12,9 km/h (3 Bft)
23.09.2019 10:30 16,9 C 16,4 C 16,9 C 86 % 1015,5 hPa 0,0 l/m 2,0 km/h (1 Bft) W-NW 293 15 min 0 min 0,000 mm 1,3 UV-I 299 W/m 14,5 C 16,9 C 4,8 km/h (1 Bft)
23.09.2019 10:15 16,4 C 16,3 C 16,4 C 87 % 1015,4 hPa 0,0 l/m 1,6 km/h (1 Bft) W-SW 251 0 min 0 min 0,000 mm 0,7 UV-I 135 W/m 14,2 C 16,4 C 4,8 km/h (1 Bft)
23.09.2019 10:00 16,3 C 15,8 C 16,3 C 88 % 1015,3 hPa 0,0 l/m 1,7 km/h (1 Bft) W-SW 253 0 min 0 min 0,077 mm 0,6 UV-I 139 W/m 14,3 C 16,3 C 6,4 km/h (2 Bft)
23.09.2019 09:45 15,8 C 15,3 C 15,8 C 90 % 1015,1 hPa 0,0 l/m 0,9 km/h (0 Bft) SW 234 0 min 0 min 0,000 mm 0,7 UV-I 156 W/m 14,2 C 15,8 C 3,2 km/h (1 Bft)
23.09.2019 09:30 15,3 C 14,9 C 15,3 C 92 % 1015,0 hPa 0,0 l/m 1,0 km/h (0 Bft) S-SW 194 0 min 0 min 0,000 mm 0,6 UV-I 135 W/m 14,0 C 15,3 C 4,8 km/h (1 Bft)
23.09.2019 09:15 14,9 C 14,7 C 14,9 C 92 % 1014,8 hPa 0,0 l/m 1,9 km/h (1 Bft) S-SW 194 0 min 0 min 0,025 mm 0,0 UV-I 93 W/m 13,6 C 14,9 C 6,4 km/h (2 Bft)
23.09.2019 09:00 14,7 C 14,5 C 14,7 C 92 % 1014,6 hPa 0,0 l/m 2,5 km/h (1 Bft) SW 224 0 min 0 min 0,000 mm 0,0 UV-I 74 W/m 13,4 C 14,7 C 6,4 km/h (2 Bft)
23.09.2019 08:45 14,5 C 14,4 C 14,6 C 92 % 1014,5 hPa 0,0 l/m 3,5 km/h (1 Bft) S-SW 197 0 min 0 min 0,000 mm 0,0 UV-I 33 W/m 13,2 C 14,5 C 8,0 km/h (2 Bft)
23.09.2019 08:30 14,5 C 14,3 C 14,5 C 92 % 1014,3 hPa 0,0 l/m 5,9 km/h (2 Bft) S-SW 210 0 min 0 min 0,000 mm 0,0 UV-I 25 W/m 13,2 C 14,5 C 11,3 km/h (2 Bft)
23.09.2019 08:15 14,3 C 13,8 C 14,3 C 92 % 1014,0 hPa 0,0 l/m 4,3 km/h (1 Bft) SW 219 0 min 0 min 0,000 mm 0,0 UV-I 26 W/m 13,0 C 14,3 C 8,0 km/h (2 Bft)
23.09.2019 08:00 13,8 C 13,8 C 13,9 C 93 % 1013,9 hPa 0,0 l/m 2,3 km/h (1 Bft) S-SO 164 0 min 0 min 0,000 mm 0,0 UV-I 11 W/m 12,7 C 13,8 C 6,4 km/h (2 Bft)
23.09.2019 07:45 13,8 C 13,8 C 13,8 C 93 % 1013,8 hPa 0,0 l/m 2,0 km/h (1 Bft) S-SO 149 0 min 0 min 0,000 mm 0,0 UV-I 7 W/m 12,7 C 13,8 C 8,0 km/h (2 Bft)
23.09.2019 07:30 13,8 C 13,7 C 13,8 C 93 % 1013,7 hPa 0,0 l/m 1,9 km/h (1 Bft) S 178 0 min 0 min 0,000 mm 0,0 UV-I 5 W/m 12,7 C 13,8 C 6,4 km/h (2 Bft)
23.09.2019 07:15 13,8 C 13,8 C 13,8 C 94 % 1013,6 hPa 0,2 l/m 2,2 km/h (1 Bft) O-SO 113 0 min 15 min 0,000 mm 0,0 UV-I 0 W/m 12,9 C 13,8 C 6,4 km/h (2 Bft)
23.09.2019 07:00 13,8 C 13,8 C 13,8 C 94 % 1013,6 hPa 0,0 l/m 1,2 km/h (1 Bft) S-SO 163 0 min 0 min 0,000 mm 0,0 UV-I 0 W/m 12,9 C 13,8 C 8,0 km/h (2 Bft)
23.09.2019 06:45 13,8 C 13,7 C 13,8 C 94 % 1013,3 hPa 0,0 l/m 1,6 km/h (1 Bft) S-SW 192 0 min 0 min 0,000 mm 0,0 UV-I 0 W/m 12,9 C 13,8 C 8,0 km/h (2 Bft)
23.09.2019 06:30 13,8 C 13,6 C 13,8 C 94 % 1013,2 hPa 0,0 l/m 1,6 km/h (1 Bft) S-SO 157 0 min 0 min 0,000 mm 0,0 UV-I 0 W/m 12,9 C 13,8 C 8,0 km/h (2 Bft)
23.09.2019 06:15 13,7 C 13,6 C 13,7 C 93 % 1013,2 hPa 0,0 l/m 1,1 km/h (1 Bft) S-SW 207 0 min 0 min 0,000 mm 0,0 UV-I 0 W/m 12,6 C 13,7 C 4,8 km/h (1 Bft)
23.09.2019 06:00 13,6 C 13,6 C 13,7 C 93 % 1013,2 hPa 0,0 l/m 0,0 km/h (0 Bft) S-SW 208 0 min 0 min 0,000 mm 0,0 UV-I 0 W/m 12,5 C 13,6 C 1,6 km/h (1 Bft)
23.09.2019 05:45 13,7 C 13,7 C 13,8 C 93 % 1013,1 hPa 0,2 l/m 0,2 km/h (0 Bft) S-SW 211 0 min 15 min 0,000 mm 0,0 UV-I 0 W/m 12,6 C 13,7 C 3,2 km/h (1 Bft)
23.09.2019 05:30 13,8 C 13,7 C 13,9 C 92 % 1013,2 hPa 0,4 l/m 1,4 km/h (1 Bft) S-SW 211 0 min 15 min 0,000 mm 0,0 UV-I 0 W/m 12,5 C 13,8 C 4,8 km/h (1 Bft)
23.09.2019 05:15 13,9 C 13,9 C 14,1 C 92 % 1013,2 hPa 0,4 l/m 1,7 km/h (1 Bft) S-SW 202 0 min 15 min 0,000 mm 0,0 UV-I 0 W/m 12,6 C 13,9 C 4,8 km/h (1 Bft)
23.09.2019 05:00 14,1 C 14,1 C 14,3 C 90 % 1013,5 hPa 0,6 l/m 2,5 km/h (1 Bft) S 184 0 min 15 min 0,000 mm 0,0 UV-I 0 W/m 12,5 C 14,1 C 8,0 km/h (2 Bft)
23.09.2019 04:45 14,3 C 14,3 C 14,6 C 90 % 1013,3 hPa 0,6 l/m 2,8 km/h (1 Bft) W-SW 257 0 min 15 min 0,000 mm 0,0 UV-I 0 W/m 12,7 C 14,3 C 6,4 km/h (2 Bft)
23.09.2019 04:30 14,6 C 14,6 C 14,8 C 90 % 1013,2 hPa 0,4 l/m 2,3 km/h (1 Bft) S-SW 212 0 min 15 min 0,000 mm 0,0 UV-I 0 W/m 13,0 C 14,6 C 9,7 km/h (2 Bft)
23.09.2019 04:15 14,8 C 14,7 C 14,8 C 91 % 1013,1 hPa 0,6 l/m 2,1 km/h (1 Bft) SW 231 0 min 15 min 0,000 mm 0,0 UV-I 0 W/m 13,3 C 14,8 C 11,3 km/h (2 Bft)
23.09.2019 04:00 14,7 C 14,7 C 14,8 C 93 % 1013,1 hPa 0,0 l/m 0,7 km/h (0 Bft) S 170 0 min 0 min 0,000 mm 0,0 UV-I 0 W/m 13,6 C 14,7 C 8,0 km/h (2 Bft)
23.09.2019 03:45 14,7 C 14,7 C 14,8 C 93 % 1013,1 hPa 0,2 l/m 0,4 km/h (0 Bft) S-SO 167 0 min 15 min 0,000 mm 0,0 UV-I 0 W/m 13,6 C 14,7 C 4,8 km/h (1 Bft)
23.09.2019 03:30 14,8 C 14,8 C 15,1 C 92 % 1013,1 hPa 0,2 l/m 2,0 km/h (1 Bft) S-SO 167 0 min 15 min 0,000 mm 0,0 UV-I 0 W/m 13,5 C 14,8 C 6,4 km/h (2 Bft)
23.09.2019 03:15 15,1 C 15,1 C 15,3 C 91 % 1013,0 hPa 0,4 l/m 3,2 km/h (1 Bft) S-SW 207 0 min 15 min 0,000 mm 0,0 UV-I 0 W/m 13,6 C 15,1 C 6,4 km/h (2 Bft)
23.09.2019 03:00 15,3 C 15,2 C 15,4 C 92 % 1012,1 hPa 0,0 l/m 0,3 km/h (0 Bft) W-SW 246 0 min 0 min 0,000 mm 0,0 UV-I 0 W/m 14,0 C 15,3 C 3,2 km/h (1 Bft)
23.09.2019 02:45 15,3 C 15,3 C 15,6 C 90 % 1012,2 hPa 0,0 l/m 1,6 km/h (1 Bft) W-SW 246 0 min 0 min 0,000 mm 0,0 UV-I 0 W/m 13,7 C 15,3 C 4,8 km/h (1 Bft)
23.09.2019 02:30 15,6 C 15,4 C 15,6 C 89 % 1012,3 hPa 0,0 l/m 1,5 km/h (1 Bft) W-SW 242 0 min 0 min 0,000 mm 0,0 UV-I 0 W/m 13,8 C 15,6 C 4,8 km/h (1 Bft)
23.09.2019 02:15 15,5 C 15,5 C 15,8 C 91 % 1012,2 hPa 0,0 l/m 1,2 km/h (1 Bft) NW 320 0 min 0 min 0,000 mm 0,0 UV-I 0 W/m 14,0 C 15,5 C 4,8 km/h (1 Bft)
23.09.2019 02:00 15,8 C 15,8 C 16,0 C 90 % 1012,2 hPa 0,0 l/m 4,0 km/h (1 Bft) W 263 0 min 0 min 0,000 mm 0,0 UV-I 0 W/m 14,2 C 15,8 C 12,9 km/h (3 Bft)
23.09.2019 01:45 15,9 C 15,9 C 16,0 C 91 % 1012,0 hPa 0,0 l/m 3,7 km/h (1 Bft) W-SW 251 0 min 0 min 0,000 mm 0,0 UV-I 0 W/m 14,4 C 15,9 C 12,9 km/h (3 Bft)
23.09.2019 01:30 16,0 C 16,0 C 16,1 C 92 % 1012,0 hPa 0,4 l/m 2,7 km/h (1 Bft) N-NO 26 0 min 15 min 0,000 mm 0,0 UV-I 0 W/m 14,7 C 16,0 C 8,0 km/h (2 Bft)
23.09.2019 01:15 16,1 C 16,0 C 16,2 C 93 % 1012,0 hPa 0,0 l/m 0,4 km/h (0 Bft) W-SW 258 0 min 0 min 0,000 mm 0,0 UV-I 0 W/m 15,0 C 16,1 C 3,2 km/h (1 Bft)
23.09.2019 01:00 16,2 C 16,1 C 16,3 C 92 % 1011,9 hPa 0,4 l/m 0,7 km/h (0 Bft) W-SW 258 0 min 15 min 0,000 mm 0,0 UV-I 0 W/m 14,9 C 16,2 C 3,2 km/h (1 Bft)
23.09.2019 00:45 16,3 C 16,3 C 16,5 C 91 % 1011,8 hPa 1,0 l/m 1,8 km/h (1 Bft) W-SW 258 0 min 15 min 0,000 mm 0,0 UV-I 0 W/m 14,8 C 16,3 C 6,4 km/h (2 Bft)
23.09.2019 00:30 16,5 C 16,4 C 16,7 C 90 % 1011,7 hPa 0,0 l/m 3,0 km/h (1 Bft) S-SW 209 0 min 0 min 0,000 mm 0,0 UV-I 0 W/m 14,9 C 16,5 C 12,9 km/h (3 Bft)
23.09.2019 00:15 16,7 C 16,7 C 17,0 C 89 % 1011,3 hPa 0,0 l/m 5,3 km/h (1 Bft) SW 233 0 min 0 min 0,000 mm 0,0 UV-I 0 W/m 14,9 C 16,7 C 19,3 km/h (3 Bft)
23.09.2019 00:00 17,0 C 17,0 C 17,2 C 89 % 1011,2 hPa 0,2 l/m 7,7 km/h (2 Bft) W 260 0 min 15 min 0,000 mm 0,0 UV-I 0 W/m 15,2 C 17,0 C 16,1 km/h (3 Bft)
22.09.2019 23:45 17,1 C 17,1 C 17,3 C 89 % 1011,0 hPa 0,0 l/m 6,5 km/h (2 Bft) W-NW 286 0 min 0 min 0,000 mm 0,0 UV-I 0 W/m 15,3 C 17,1 C 14,5 km/h (3 Bft)
22.09.2019 23:30 17,3 C 17,2 C 17,3 C 89 % 1010,8 hPa 0,2 l/m 8,6 km/h (2 Bft) W 273 0 min 15 min 0,000 mm 0,0 UV-I 0 W/m 15,5 C 17,3 C 20,9 km/h (4 Bft)
22.09.2019 23:15 17,2 C 17,2 C 17,3 C 89 % 1010,6 hPa 0,0 l/m 8,0 km/h (2 Bft) W 279 0 min 0 min 0,026 mm 0,0 UV-I 0 W/m 15,4 C 17,2 C 19,3 km/h (3 Bft)
22.09.2019 23:00 17,3 C 17,3 C 17,3 C 89 % 1010,6 hPa 0,4 l/m 7,3 km/h (2 Bft) W 261 0 min 15 min 0,000 mm 0,0 UV-I 0 W/m 15,5 C 17,3 C 16,1 km/h (3 Bft)
22.09.2019 22:45 17,3 C 17,3 C 17,5 C 88 % 1010,5 hPa 0,4 l/m 5,8 km/h (2 Bft) W 270 0 min 15 min 0,000 mm 0,0 UV-I 0 W/m 15,3 C 17,3 C 16,1 km/h (3 Bft)
22.09.2019 22:30 17,5 C 17,5 C 17,9 C 87 % 1010,4 hPa 0,4 l/m 6,5 km/h (2 Bft) W-SW 254 0 min 15 min 0,000 mm 0,0 UV-I 0 W/m 15,3 C 17,5 C 19,3 km/h (3 Bft)
22.09.2019 22:15 17,9 C 17,9 C 18,3 C 84 % 1010,1 hPa 0,2 l/m 7,9 km/h (2 Bft) W 261 0 min 15 min 0,051 mm 0,0 UV-I 0 W/m 15,2 C 17,9 C 19,3 km/h (3 Bft)
22.09.2019 22:00 18,3 C 18,3 C 18,9 C 85 % 1010,1 hPa 0,2 l/m 8,8 km/h (2 Bft) W-NW 294 0 min 15 min 0,000 mm 0,0 UV-I 0 W/m 15,7 C 18,3 C 19,3 km/h (3 Bft)
_ Min-Zeit 06:00 06:00 06:00 15:00 22:00 - 06:00 - - - - - - - 14:30 06:00 06:00
Minimum _ 13,6 C 13,6 C 13,7 C 58 % 1010,1 hPa - 0,0 km/h (0 Bft) - - - - - - - 11,0 C 13,6 C 1,6 km/h (1 Bft)
_ Max-Zeit 14:00 15:00 14:00 06:30 21:30 00:45 22:00 - - 10:30 22:00 13:15 13:15 15:45 22:00 13:30 14:00
Maximum _ 20,3 C 19,9 C 20,3 C 94 % 1017,2 hPa 1,0 l/m 8,8 km/h
W-NW (2 Bft)
- - 15 min 15 min 0,305 mm 3,8 UV-I 656 W/m 15,7 C 20,2 C 24,1 km/h
SW (4 Bft)
Durchschnitt _ 16,8 C 16,6 C 17,0 C 81 % 1014,1 hPa #8,0 l/m 4,3 km/h (1 Bft) W-SW - #2:45 h #3:45 h #1,803 mm 1,9 UV-I 209 W/m 13,2 C 16,8 C 11,9 km/h (2 Bft)